When you browse on this site, cookies collect data to enhance your experience and personalize the content and advertising you see.
Visit our Privacy Policy to learn more. By continuing to use the site, you agree to this use of cookies and data.
  • In Portugal
  • List of Countries
  • For 7 days
  • Water Temperature
  • Satellite Maps
  • Weather Map
  • Weather Widgets
  • user-avatar
    Login

    Hourly Weather Sumgayit

    Today, 22 January, Tuesday

    Time Temperature Precipitation Wind Pressure Humidity
    00:00 +1°C° 0 mm 8 mps 740 mmHg 61%
    01:00 +1°C° 0 mm 8 mps 740 mmHg 57%
    02:00 +1°C° 0 mm 8 mps 739 mmHg 54%
    03:00 0°C° 0 mm 8 mps 739 mmHg 40%
    04:00 0°C° 0 mm 7 mps 739 mmHg 44%
    05:00 0°C° 0 mm 7 mps 739 mmHg 47%
    06:00 +1°C° 0 mm 6 mps 739 mmHg 51%
    07:00 +1°C° 0 mm 5 mps 739 mmHg 47%
    08:00 +3°C° 0 mm 4 mps 739 mmHg 44%
    09:00 +4°C° 0 mm 4 mps 739 mmHg 40%
    10:00 +5°C° 0 mm 3 mps 739 mmHg 37%
    11:00 +8°C° 0 mm 3 mps 739 mmHg 34%
    12:00 +9°C° 0 mm 3 mps 739 mmHg 31%
    13:00 +9°C° 0 mm 2 mps 739 mmHg 32%
    14:00 +10°C° 0 mm 2 mps 739 mmHg 32%
    15:00 +11°C° 0 mm 1 mps 739 mmHg 34%
    16:00 +10°C° 0 mm 1 mps 739 mmHg 42%
    17:00 +7°C° 0 mm 2 mps 739 mmHg 49%
    18:00 +6°C° 0 mm 2 mps 739 mmHg 56%
    19:00 +6°C° 0 mm 2 mps 740 mmHg 60%
    20:00 +5°C° 0 mm 2 mps 740 mmHg 64%
    21:00 +4°C° 0 mm 3 mps 740 mmHg 68%
    22:00 +4°C° 0 mm 3 mps 740 mmHg 69%
    23:00 +4°C° 0 mm 3 mps 741 mmHg 70%

    Tomorrow, 23 January, Wednesday

    Time Temperature Precipitation Wind Pressure Humidity
    00:00 +3°C° 0 mm 3 mps 741 mmHg 71%
    01:00 +3°C° 0 mm 4 mps 741 mmHg 72%
    02:00 +3°C° 0 mm 4 mps 742 mmHg 72%
    03:00 +3°C° 0 mm 4 mps 742 mmHg 73%
    04:00 +3°C° 0 mm 4 mps 742 mmHg 75%
    05:00 +1°C° 0 mm 4 mps 743 mmHg 77%
    06:00 +2°C° 0 mm 3 mps 743 mmHg 79%
    07:00 +3°C° 0 mm 3 mps 743 mmHg 77%
    08:00 +4°C° 0 mm 3 mps 744 mmHg 75%
    09:00 +4°C° 0 mm 3 mps 744 mmHg 73%
    10:00 +5°C° 0 mm 3 mps 744 mmHg 71%
    11:00 +7°C° 0 mm 2 mps 744 mmHg 69%
    12:00 +7°C° 0 mm 2 mps 744 mmHg 66%
    13:00 +7°C° 0 mm 2 mps 744 mmHg 66%
    14:00 +8°C° 0 mm 2 mps 744 mmHg 66%
    15:00 +8°C° 0 mm 2 mps 744 mmHg 66%
    16:00 +7°C° 0 mm 2 mps 744 mmHg 72%
    17:00 +5°C° 0 mm 3 mps 744 mmHg 78%
    18:00 +5°C° 0 mm 3 mps 744 mmHg 85%
    19:00 +5°C° 0 mm 3 mps 744 mmHg 87%
    20:00 +4°C° 0 mm 3 mps 744 mmHg 89%
    21:00 +4°C° 0 mm 3 mps 744 mmHg 92%
    22:00 +4°C° 0 mm 3 mps 744 mmHg 92%
    23:00 +4°C° 0 mm 3 mps 744 mmHg 91%

    Day after tomorrow, 24 January, Thursday

    Time Temperature Precipitation Wind Pressure Humidity
    00:00 +4°C° 0 mm 3 mps 744 mmHg 91%
    01:00 +4°C° 0 mm 3 mps 744 mmHg 90%
    02:00 +4°C° 0 mm 4 mps 744 mmHg 90%
    03:00 +4°C° 0 mm 4 mps 744 mmHg 89%
    04:00 +4°C° 0 mm 4 mps 743 mmHg 89%
    05:00 +3°C° 0 mm 5 mps 743 mmHg 89%
    06:00 +3°C° 0 mm 5 mps 743 mmHg 89%
    07:00 +3°C° 0 mm 6 mps 743 mmHg 83%
    08:00 +4°C° 0 mm 6 mps 743 mmHg 77%
    09:00 +4°C° 0 mm 7 mps 743 mmHg 71%
    10:00 +5°C° 0 mm 7 mps 743 mmHg 65%
    11:00 +6°C° 0 mm 7 mps 743 mmHg 59%
    12:00 +8°C° 0 mm 7 mps 743 mmHg 53%
    13:00 +8°C° 0 mm 7 mps 742 mmHg 51%
    14:00 +8°C° 0 mm 7 mps 742 mmHg 49%
    15:00 +8°C° 0 mm 7 mps 742 mmHg 48%
    16:00 +6°C° 0 mm 7 mps 742 mmHg 51%
    17:00 +7°C° 0 mm 6 mps 742 mmHg 55%
    18:00 +6°C° 0 mm 5 mps 742 mmHg 58%
    19:00 +5°C° 0 mm 6 mps 741 mmHg 57%
    20:00 +4°C° 0 mm 6 mps 741 mmHg 56%
    21:00 +4°C° 0 mm 6 mps 741 mmHg 55%
    22:00 +4°C° 0 mm 6 mps 740 mmHg 53%
    23:00 +4°C° 0 mm 6 mps 740 mmHg 51%

    25 January, Friday

    Time Temperature Precipitation Wind Pressure Humidity
    00:00 +3°C° 0 mm 7 mps 740 mmHg 49%
    01:00 +3°C° 0 mm 7 mps 739 mmHg 47%
    02:00 +3°C° 0 mm 7 mps 739 mmHg 45%
    03:00 +3°C° 0 mm 7 mps 739 mmHg 43%
    04:00 +3°C° 0 mm 7 mps 738 mmHg 41%
    05:00 +3°C° 0 mm 7 mps 738 mmHg 40%
    06:00 +3°C° 0 mm 6 mps 738 mmHg 39%
    07:00 +3°C° 0 mm 7 mps 738 mmHg 39%
    08:00 +4°C° 0 mm 8 mps 738 mmHg 39%
    09:00 +4°C° 0 mm 8 mps 738 mmHg 39%
    10:00 +5°C° 0 mm 9 mps 737 mmHg 36%
    11:00 +6°C° 0 mm 9 mps 737 mmHg 34%
    12:00 +8°C° 0 mm 10 mps 737 mmHg 31%
    13:00 +8°C° 0 mm 9 mps 737 mmHg 32%
    14:00 +10°C° 0 mm 9 mps 737 mmHg 33%
    15:00 +10°C° 0 mm 8 mps 736 mmHg 34%
    16:00 +9°C° 0 mm 7 mps 736 mmHg 37%
    17:00 +8°C° 0 mm 6 mps 736 mmHg 41%
    18:00 +7°C° 0 mm 5 mps 736 mmHg 44%
    19:00 +7°C° 0 mm 4 mps 737 mmHg 47%
    20:00 +7°C° 0 mm 3 mps 737 mmHg 50%
    21:00 +7°C° 0 mm 2 mps 737 mmHg 53%
    22:00 +6°C° 0 mm 2 mps 737 mmHg 54%
    23:00 +7°C° 0 mm 1 mps 737 mmHg 56%

    26 January, Saturday

    Time Temperature Precipitation Wind Pressure Humidity
    00:00 +6°C° 0 mm 1 mps 737 mmHg 57%
    01:00 +6°C° 0 mm 1 mps 737 mmHg 57%
    02:00 +6°C° 0 mm 1 mps 737 mmHg 56%
    03:00 +6°C° 0 mm 1 mps 737 mmHg 56%
    04:00 +6°C° 0 mm 1 mps 737 mmHg 55%
    05:00 +6°C° 0 mm 1 mps 737 mmHg 55%
    06:00 +5°C° 0 mm 1 mps 737 mmHg 54%
    07:00 +5°C° 0 mm 2 mps 737 mmHg 51%
    08:00 +6°C° 0 mm 2 mps 738 mmHg 48%
    09:00 +7°C° 0 mm 3 mps 738 mmHg 45%
    10:00 +8°C° 0 mm 5 mps 738 mmHg 39%
    11:00 +10°C° 0 mm 7 mps 737 mmHg 34%
    12:00 +12°C° 0 mm 9 mps 737 mmHg 29%
    13:00 +12°C° 0 mm 9 mps 737 mmHg 29%
    14:00 +12°C° 0 mm 9 mps 736 mmHg 29%
    15:00 +12°C° 0 mm 9 mps 736 mmHg 28%
    16:00 +11°C° 0 mm 9 mps 735 mmHg 30%
    17:00 +10°C° 0 mm 8 mps 735 mmHg 33%
    18:00 +9°C° 0 mm 8 mps 735 mmHg 35%
    19:00 +9°C° 0 mm 7 mps 735 mmHg 37%
    20:00 +9°C° 0 mm 7 mps 735 mmHg 39%
    21:00 +8°C° 0 mm 6 mps 735 mmHg 41%
    22:00 +8°C° 0 mm 5 mps 735 mmHg 42%
    23:00 +8°C° 0 mm 5 mps 735 mmHg 42%

    27 January, Sunday

    Time Temperature Precipitation Wind Pressure Humidity
    00:00 +7°C° 0 mm 4 mps 735 mmHg 43%
    01:00 +7°C° 0 mm 4 mps 734 mmHg 45%
    02:00 +7°C° 0 mm 4 mps 734 mmHg 46%
    03:00 +8°C° 0 mm 3 mps 734 mmHg 47%
    04:00 +7°C° 0 mm 4 mps 734 mmHg 48%
    05:00 +7°C° 0 mm 4 mps 734 mmHg 49%
    06:00 +7°C° 0 mm 4 mps 734 mmHg 50%
    07:00 +8°C° 0 mm 4 mps 735 mmHg 48%
    08:00 +10°C° 0 mm 4 mps 735 mmHg 47%
    09:00 +11°C° 0 mm 4 mps 735 mmHg 46%
    10:00 +12°C° 0 mm 5 mps 735 mmHg 42%
    11:00 +14°C° 0 mm 6 mps 735 mmHg 37%
    12:00 +16°C° 0 mm 6 mps 735 mmHg 32%
    13:00 +16°C° 0 mm 6 mps 735 mmHg 32%
    14:00 +16°C° 0 mm 6 mps 734 mmHg 31%
    15:00 +16°C° 0 mm 6 mps 734 mmHg 31%
    16:00 +14°C° 0 mm 5 mps 734 mmHg 35%
    17:00 +13°C° 0 mm 5 mps 734 mmHg 38%
    18:00 +12°C° 0 mm 4 mps 734 mmHg 42%
    19:00 +11°C° 0 mm 4 mps 734 mmHg 43%
    20:00 +11°C° 0 mm 4 mps 734 mmHg 44%
    21:00 +10°C° 0 mm 4 mps 734 mmHg 44%
    22:00 +10°C° 0 mm 5 mps 734 mmHg 42%
    23:00 +10°C° 0 mm 6 mps 734 mmHg 39%
    Show more